Starlink 3672

operational
NORAD ID: 51974 Int'l Des: 2022-025 Owner: SPXS Country: US Constellation: starlink
LEOCIRCULARSTARLINK_TYPE

关于 Starlink 3672

正在加载描述...

实时位置

正在加载3D地球...

即将过境

高度历史

Altitude vs Time

uPlot chart will show altitude changes over time

两行轨道根数

1 51974U 22025U 25304.57209663 .00000137 00000-0 28102-4 0 9997
2 51974 53.0563 250.5200 0001591 91.6468 268.4703 15.06396639201454
Epoch: Oct 31, 2025 • Age: 19 hours

当前状态

高度 558.3 km
速度 7.58 km/s
星下点 -33.27°S, 67.9°W
发射日期 Mar 9, 2022
运行时间 3.6 years
类型 internet

技术详情

分类 Payload
质量 297.00 kg
干质量 275.00 kg
总质量 297.00 kg
长度 0.20 m
直径 2.80 m
跨度 9.00 m
形状 Box + pan
制造商 SPXS
平台类型 Starlink
阶段状态 In Orbit
所有者/国家 SPXS/US

大型星座

Loading constellations...